Year,Month,Day,Hour,Minute,Value (Times are PST for temperature in C)
2015,08,24,00,00,17.20
2015,08,24,00,01,17.20
2015,08,24,00,02,17.20
2015,08,24,00,03,17.10
2015,08,24,00,04,17.10
2015,08,24,00,05,17.10
2015,08,24,00,06,17.00
2015,08,24,00,07,17.00
2015,08,24,00,08,16.90
2015,08,24,00,09,16.90
2015,08,24,00,10,16.90
2015,08,24,00,11,16.90
2015,08,24,00,12,16.80
2015,08,24,00,13,16.80
2015,08,24,00,14,16.80
2015,08,24,00,15,16.80
2015,08,24,00,16,16.80
2015,08,24,00,17,16.80
2015,08,24,00,18,16.70
2015,08,24,00,19,16.70
2015,08,24,00,20,16.70
2015,08,24,00,21,16.70
2015,08,24,00,22,16.70
2015,08,24,00,23,16.70
2015,08,24,00,24,16.60
2015,08,24,00,25,16.60
2015,08,24,00,26,16.60
2015,08,24,00,27,16.60
2015,08,24,00,28,16.50
2015,08,24,00,29,16.50
2015,08,24,00,30,16.40
2015,08,24,00,31,16.40
2015,08,24,00,32,16.40
2015,08,24,00,33,16.30
2015,08,24,00,34,16.30
2015,08,24,00,35,16.30
2015,08,24,00,36,16.30
2015,08,24,00,37,16.20
2015,08,24,00,38,16.20
2015,08,24,00,39,16.20
2015,08,24,00,40,16.10
2015,08,24,00,41,16.10
2015,08,24,00,42,16.10
2015,08,24,00,43,16.10
2015,08,24,00,44,16.00
2015,08,24,00,45,16.00
2015,08,24,00,46,16.00
2015,08,24,00,47,16.00
2015,08,24,00,48,15.90
2015,08,24,00,49,15.90
2015,08,24,00,50,15.90
2015,08,24,00,51,15.90
2015,08,24,00,52,15.90
2015,08,24,00,53,15.90
2015,08,24,00,54,15.80
2015,08,24,00,55,15.80
2015,08,24,00,56,15.80
2015,08,24,00,57,15.80
2015,08,24,00,58,15.80
2015,08,24,00,59,15.80
2015,08,24,01,00,15.80
2015,08,24,01,01,15.80
2015,08,24,01,02,15.80
2015,08,24,01,03,15.80
2015,08,24,01,04,15.80
2015,08,24,01,05,15.80
2015,08,24,01,06,15.70
2015,08,24,01,07,15.70
2015,08,24,01,08,15.70
2015,08,24,01,09,15.70
2015,08,24,01,10,15.70
2015,08,24,01,11,15.60
2015,08,24,01,12,15.60
2015,08,24,01,13,15.60
2015,08,24,01,14,15.60
2015,08,24,01,15,15.60
2015,08,24,01,16,15.60
2015,08,24,01,17,15.50
2015,08,24,01,18,15.50
2015,08,24,01,19,15.50
2015,08,24,01,20,15.40
2015,08,24,01,21,15.40
2015,08,24,01,22,15.40
2015,08,24,01,23,15.40
2015,08,24,01,24,15.40
2015,08,24,01,25,15.40
2015,08,24,01,26,15.30
2015,08,24,01,27,15.30
2015,08,24,01,28,15.30
2015,08,24,01,29,15.30
2015,08,24,01,30,15.30
2015,08,24,01,31,15.30
2015,08,24,01,32,15.20
2015,08,24,01,33,15.20
2015,08,24,01,34,15.20
2015,08,24,01,35,15.20
2015,08,24,01,36,15.20
2015,08,24,01,37,15.20
2015,08,24,01,38,15.10
2015,08,24,01,39,15.10
2015,08,24,01,40,15.10
2015,08,24,01,41,15.10
2015,08,24,01,42,15.10
2015,08,24,01,43,15.10
2015,08,24,01,44,15.10
2015,08,24,01,45,15.10
2015,08,24,01,46,15.10
2015,08,24,01,47,15.10
2015,08,24,01,48,15.10
2015,08,24,01,49,15.10
2015,08,24,01,50,15.10
2015,08,24,01,51,15.10
2015,08,24,01,52,15.10
2015,08,24,01,53,15.00
2015,08,24,01,54,15.00
2015,08,24,01,55,15.00
2015,08,24,01,56,15.00
2015,08,24,01,57,15.00
2015,08,24,01,58,15.00
2015,08,24,01,59,15.00
2015,08,24,02,00,15.00
2015,08,24,02,01,15.00
2015,08,24,02,02,15.00
2015,08,24,02,03,15.10
2015,08,24,02,04,15.00
2015,08,24,02,05,15.10
2015,08,24,02,06,15.00
2015,08,24,02,07,15.00
2015,08,24,02,08,15.00
2015,08,24,02,09,15.00
2015,08,24,02,10,15.00
2015,08,24,02,11,15.00
2015,08,24,02,12,15.00
2015,08,24,02,13,15.00
2015,08,24,02,14,15.00
2015,08,24,02,15,15.00
2015,08,24,02,16,15.00
2015,08,24,02,17,15.00
2015,08,24,02,18,14.90
2015,08,24,02,19,14.90
2015,08,24,02,20,14.90
2015,08,24,02,21,14.90
2015,08,24,02,22,14.90
2015,08,24,02,23,14.90
2015,08,24,02,24,14.90
2015,08,24,02,25,14.80
2015,08,24,02,26,14.80
2015,08,24,02,27,14.80
2015,08,24,02,28,14.80
2015,08,24,02,29,14.80
2015,08,24,02,30,14.80
2015,08,24,02,31,14.80
2015,08,24,02,32,14.80
2015,08,24,02,33,14.80
2015,08,24,02,34,14.80
2015,08,24,02,35,14.80
2015,08,24,02,36,14.70
2015,08,24,02,37,14.70
2015,08,24,02,38,14.70
2015,08,24,02,39,14.70
2015,08,24,02,40,14.70
2015,08,24,02,41,14.70
2015,08,24,02,42,14.70
2015,08,24,02,43,14.70
2015,08,24,02,44,14.60
2015,08,24,02,45,14.60
2015,08,24,02,46,14.60
2015,08,24,02,47,14.60
2015,08,24,02,48,14.60
2015,08,24,02,49,14.60
2015,08,24,02,50,14.50
2015,08,24,02,51,14.50
2015,08,24,02,52,14.50
2015,08,24,02,53,14.50
2015,08,24,02,54,14.40
2015,08,24,02,55,14.40
2015,08,24,02,56,14.40
2015,08,24,02,57,14.40
2015,08,24,02,58,14.40
2015,08,24,02,59,14.40
2015,08,24,03,00,14.40
2015,08,24,03,01,14.40
2015,08,24,03,02,14.40
2015,08,24,03,06,14.40
2015,08,24,03,07,14.40
2015,08,24,03,08,14.40
2015,08,24,03,09,14.40
2015,08,24,03,10,14.40
2015,08,24,03,11,14.40
2015,08,24,03,12,14.40
2015,08,24,03,13,14.30
2015,08,24,03,14,14.30
2015,08,24,03,15,14.30
2015,08,24,03,16,14.30
2015,08,24,03,17,14.30
2015,08,24,03,18,14.30
2015,08,24,03,19,14.30
2015,08,24,03,20,14.30
2015,08,24,03,21,14.30
2015,08,24,03,22,14.30
2015,08,24,03,23,14.30
2015,08,24,03,24,14.30
2015,08,24,03,25,14.30
2015,08,24,03,26,14.30
2015,08,24,03,27,14.30
2015,08,24,03,28,14.30
2015,08,24,03,29,14.20
2015,08,24,03,30,14.20
2015,08,24,03,31,14.20
2015,08,24,03,32,14.20
2015,08,24,03,33,14.20
2015,08,24,03,34,14.30
2015,08,24,03,35,14.20
2015,08,24,03,36,14.20
2015,08,24,03,37,14.20
2015,08,24,03,38,14.20
2015,08,24,03,39,14.20
2015,08,24,03,40,14.20
2015,08,24,03,41,14.20
2015,08,24,03,42,14.20
2015,08,24,03,43,14.20
2015,08,24,03,44,14.20
2015,08,24,03,45,14.20
2015,08,24,03,46,14.20
2015,08,24,03,47,14.20
2015,08,24,03,48,14.20
2015,08,24,03,49,14.20
2015,08,24,03,50,14.10
2015,08,24,03,51,14.10
2015,08,24,03,52,14.10
2015,08,24,03,53,14.10
2015,08,24,03,54,14.10
2015,08,24,03,55,14.10
2015,08,24,03,56,14.10
2015,08,24,03,57,14.10
2015,08,24,03,58,14.10
2015,08,24,03,59,14.10
2015,08,24,04,00,14.10
2015,08,24,04,01,14.10
2015,08,24,04,02,14.10
2015,08,24,04,03,14.10
2015,08,24,04,04,14.10
2015,08,24,04,05,14.00
2015,08,24,04,06,14.00
2015,08,24,04,07,14.00
2015,08,24,04,08,14.00
2015,08,24,04,09,14.00
2015,08,24,04,10,14.00
2015,08,24,04,11,14.00
2015,08,24,04,12,14.00
2015,08,24,04,13,14.00
2015,08,24,04,14,14.00
2015,08,24,04,15,14.00
2015,08,24,04,16,14.00
2015,08,24,04,17,14.00
2015,08,24,04,18,14.00
2015,08,24,04,19,14.00
2015,08,24,04,20,14.00
2015,08,24,04,21,14.00
2015,08,24,04,22,14.00
2015,08,24,04,23,14.00
2015,08,24,04,24,14.00
2015,08,24,04,25,14.00
2015,08,24,04,26,14.00
2015,08,24,04,27,14.00
2015,08,24,04,28,14.00
2015,08,24,04,29,14.00
2015,08,24,04,30,13.90
2015,08,24,04,31,13.90
2015,08,24,04,32,13.90
2015,08,24,04,33,13.90
2015,08,24,04,34,13.90
2015,08,24,04,35,13.90
2015,08,24,04,36,13.90
2015,08,24,04,37,13.90
2015,08,24,04,38,13.90
2015,08,24,04,39,13.90
2015,08,24,04,40,13.90
2015,08,24,04,41,13.80
2015,08,24,04,42,13.80
2015,08,24,04,43,13.80
2015,08,24,04,44,13.80
2015,08,24,04,45,13.80
2015,08,24,04,46,13.80
2015,08,24,04,47,13.80
2015,08,24,04,48,13.80
2015,08,24,04,49,13.80
2015,08,24,04,50,13.80
2015,08,24,04,51,13.80
2015,08,24,04,52,13.80
2015,08,24,04,53,13.80
2015,08,24,04,54,13.80
2015,08,24,04,55,13.70
2015,08,24,04,56,13.70
2015,08,24,04,57,13.70
2015,08,24,04,58,13.70
2015,08,24,04,59,13.70
2015,08,24,05,00,13.70
2015,08,24,05,01,13.70
2015,08,24,05,02,13.70
2015,08,24,05,03,13.70
2015,08,24,05,04,13.70
2015,08,24,05,05,13.70
2015,08,24,05,06,13.70
2015,08,24,05,07,13.70
2015,08,24,05,08,13.70
2015,08,24,05,09,13.60
2015,08,24,05,10,13.60
2015,08,24,05,11,13.60
2015,08,24,05,12,13.50
2015,08,24,05,13,13.50
2015,08,24,05,14,13.40
2015,08,24,05,15,13.40
2015,08,24,05,16,13.30
2015,08,24,05,17,13.30
2015,08,24,05,18,13.20
2015,08,24,05,19,13.10
2015,08,24,05,20,13.10
2015,08,24,05,21,13.10
2015,08,24,05,22,13.00
2015,08,24,05,23,13.00
2015,08,24,05,24,13.00
2015,08,24,05,25,12.90
2015,08,24,05,26,12.90
2015,08,24,05,27,12.90
2015,08,24,05,28,12.90
2015,08,24,05,29,12.90
2015,08,24,05,30,12.90
2015,08,24,05,31,12.90
2015,08,24,05,32,12.90
2015,08,24,05,33,12.90
2015,08,24,05,34,12.90
2015,08,24,05,35,12.90
2015,08,24,05,36,12.90
2015,08,24,05,37,12.90
2015,08,24,05,38,12.90
2015,08,24,05,39,12.90
2015,08,24,05,40,12.90
2015,08,24,05,41,12.90
2015,08,24,05,42,12.90
2015,08,24,05,43,12.90
2015,08,24,05,44,12.90
2015,08,24,05,45,12.80
2015,08,24,05,46,12.80
2015,08,24,05,47,12.80
2015,08,24,05,48,12.80
2015,08,24,05,49,12.80
2015,08,24,05,50,12.80
2015,08,24,05,51,12.80
2015,08,24,05,52,12.80
2015,08,24,05,53,12.70
2015,08,24,05,54,12.70
2015,08,24,05,55,12.70
2015,08,24,05,56,12.70
2015,08,24,05,57,12.70
2015,08,24,05,58,12.60
2015,08,24,05,59,12.60
2015,08,24,06,00,12.50
2015,08,24,06,01,12.50
2015,08,24,06,02,12.50
2015,08,24,06,03,12.40
2015,08,24,06,04,12.40
2015,08,24,06,05,12.30
2015,08,24,06,06,12.30
2015,08,24,06,07,12.30
2015,08,24,06,08,12.20
2015,08,24,06,09,12.20
2015,08,24,06,10,12.20
2015,08,24,06,11,12.10
2015,08,24,06,12,12.10
2015,08,24,06,13,12.00
2015,08,24,06,14,12.00
2015,08,24,06,15,11.90
2015,08,24,06,16,11.90
2015,08,24,06,17,11.90
2015,08,24,06,18,11.90
2015,08,24,06,19,11.80
2015,08,24,06,20,11.80
2015,08,24,06,21,11.80
2015,08,24,06,22,11.70
2015,08,24,06,23,11.70
2015,08,24,06,24,11.70
2015,08,24,06,25,11.70
2015,08,24,06,26,11.70
2015,08,24,06,27,11.70
2015,08,24,06,28,11.70
2015,08,24,06,29,11.70
2015,08,24,06,30,11.60
2015,08,24,06,31,11.60
2015,08,24,06,32,11.60
2015,08,24,06,33,11.60
2015,08,24,06,34,11.60
2015,08,24,06,35,11.50
2015,08,24,06,36,11.50
2015,08,24,06,37,11.40
2015,08,24,06,38,11.40
2015,08,24,06,39,11.40
2015,08,24,06,40,11.40
2015,08,24,06,41,11.40
2015,08,24,06,42,11.40
2015,08,24,06,43,11.40
2015,08,24,06,44,11.40
2015,08,24,06,45,11.30
2015,08,24,06,46,11.30
2015,08,24,06,47,11.30
2015,08,24,06,48,11.30
2015,08,24,06,49,11.20
2015,08,24,06,50,11.20
2015,08,24,06,51,11.20
2015,08,24,06,52,11.20
2015,08,24,06,53,11.20
2015,08,24,06,54,11.20
2015,08,24,06,55,11.10
2015,08,24,06,56,11.10
2015,08,24,06,57,11.10
2015,08,24,06,58,11.10
2015,08,24,06,59,11.10
2015,08,24,07,00,11.10
2015,08,24,07,01,11.10
2015,08,24,07,02,11.10
2015,08,24,07,03,11.10
2015,08,24,07,04,11.10
2015,08,24,07,05,11.00
2015,08,24,07,06,11.00
2015,08,24,07,07,11.00
2015,08,24,07,08,11.00
2015,08,24,07,09,11.00
2015,08,24,07,10,11.00
2015,08,24,07,11,11.00
2015,08,24,07,12,11.00
2015,08,24,07,13,11.00
2015,08,24,07,14,11.10
2015,08,24,07,15,11.10
2015,08,24,07,16,11.10
2015,08,24,07,17,11.10
2015,08,24,07,18,11.10
2015,08,24,07,19,11.20
2015,08,24,07,20,11.20
2015,08,24,07,21,11.20
2015,08,24,07,22,11.20
2015,08,24,07,23,11.20
2015,08,24,07,24,11.30
2015,08,24,07,25,11.30
2015,08,24,07,26,11.30
2015,08,24,07,27,11.30
2015,08,24,07,28,11.40
2015,08,24,07,29,11.40
2015,08,24,07,30,11.40
2015,08,24,07,31,11.50
2015,08,24,07,32,11.50
2015,08,24,07,33,11.50
2015,08,24,07,34,11.50
2015,08,24,07,35,11.60
2015,08,24,07,36,11.60
2015,08,24,07,37,11.60
2015,08,24,07,38,11.70
2015,08,24,07,39,11.70
2015,08,24,07,40,11.80
2015,08,24,07,41,11.80
2015,08,24,07,42,11.90
2015,08,24,07,43,12.00
2015,08,24,07,44,12.10
2015,08,24,07,45,12.20
2015,08,24,07,46,12.30
2015,08,24,07,47,12.40
2015,08,24,07,48,12.50
2015,08,24,07,49,12.50
2015,08,24,07,50,12.60
2015,08,24,07,51,12.70
2015,08,24,07,52,12.80
2015,08,24,07,53,12.80
2015,08,24,07,54,12.80
2015,08,24,07,55,12.90
2015,08,24,07,56,12.90
2015,08,24,07,57,12.90
2015,08,24,07,58,13.00
2015,08,24,07,59,13.00
2015,08,24,08,00,13.10
2015,08,24,08,01,13.10
2015,08,24,08,02,13.20
2015,08,24,08,03,13.20
2015,08,24,08,04,13.20
2015,08,24,08,05,13.30
2015,08,24,08,06,13.30
2015,08,24,08,07,13.40
2015,08,24,08,08,13.40
2015,08,24,08,09,13.50
2015,08,24,08,10,13.60
2015,08,24,08,11,13.70
2015,08,24,08,12,13.80
2015,08,24,08,13,13.80
2015,08,24,08,14,13.90
2015,08,24,08,15,14.00
2015,08,24,08,16,14.10
2015,08,24,08,17,14.20
2015,08,24,08,18,14.20
2015,08,24,08,19,14.30
2015,08,24,08,20,14.40
2015,08,24,08,21,14.50
2015,08,24,08,22,14.60
2015,08,24,08,23,14.80
2015,08,24,08,24,14.90
2015,08,24,08,25,15.00
2015,08,24,08,26,15.10
2015,08,24,08,27,15.10
2015,08,24,08,28,15.20
2015,08,24,08,29,15.30
2015,08,24,08,30,15.30
2015,08,24,08,31,15.40
2015,08,24,08,32,15.50
2015,08,24,08,33,15.60
2015,08,24,08,34,15.80
2015,08,24,08,35,15.90
2015,08,24,08,36,16.00
2015,08,24,08,37,16.10
2015,08,24,08,38,16.20
2015,08,24,08,39,16.40
2015,08,24,08,40,16.50
2015,08,24,08,41,16.60
2015,08,24,08,42,16.80
2015,08,24,08,43,16.90
2015,08,24,08,44,17.00
2015,08,24,08,45,17.10
2015,08,24,08,46,17.30
2015,08,24,08,47,17.40
2015,08,24,08,48,17.60
2015,08,24,08,49,17.70
2015,08,24,08,50,17.80
2015,08,24,08,51,17.90
2015,08,24,08,52,18.00
2015,08,24,08,53,18.00
2015,08,24,08,54,18.00
2015,08,24,08,55,18.00
2015,08,24,08,56,18.10
2015,08,24,08,57,18.10
2015,08,24,08,58,18.20
2015,08,24,08,59,18.20
2015,08,24,09,00,18.30
2015,08,24,09,01,18.30
2015,08,24,09,02,18.30
2015,08,24,09,03,18.40
2015,08,24,09,04,18.50
2015,08,24,09,05,18.60
2015,08,24,09,06,18.70
2015,08,24,09,07,18.80
2015,08,24,09,08,18.80
2015,08,24,09,09,18.70
2015,08,24,09,10,18.70
2015,08,24,09,11,18.70
2015,08,24,09,12,18.80
2015,08,24,09,13,18.80
2015,08,24,09,14,18.80
2015,08,24,09,15,18.80
2015,08,24,09,16,18.80
2015,08,24,09,17,18.80
2015,08,24,09,18,18.80
2015,08,24,09,19,18.90
2015,08,24,09,20,18.90
2015,08,24,09,21,19.00
2015,08,24,09,22,19.00
2015,08,24,09,23,19.10
2015,08,24,09,24,19.20
2015,08,24,09,25,19.30
2015,08,24,09,26,19.30
2015,08,24,09,27,19.30
2015,08,24,09,28,19.40
2015,08,24,09,29,19.30
2015,08,24,09,30,19.30
2015,08,24,09,31,19.30
2015,08,24,09,32,19.30
2015,08,24,09,33,19.20
2015,08,24,09,34,19.20
2015,08,24,09,35,19.20
2015,08,24,09,36,19.20
2015,08,24,09,37,19.20
2015,08,24,09,38,19.20
2015,08,24,09,39,19.20
2015,08,24,09,40,19.20
2015,08,24,09,41,19.20
2015,08,24,09,42,19.30
2015,08,24,09,43,19.40
2015,08,24,09,44,19.60
2015,08,24,09,45,19.70
2015,08,24,09,46,19.70
2015,08,24,09,47,19.60
2015,08,24,09,48,19.60
2015,08,24,09,49,19.70
2015,08,24,09,50,19.80
2015,08,24,09,51,19.80
2015,08,24,09,52,19.70
2015,08,24,09,53,19.70
2015,08,24,09,54,19.60
2015,08,24,09,55,19.70
2015,08,24,09,56,19.80
2015,08,24,09,57,19.80
2015,08,24,09,58,19.80
2015,08,24,09,59,19.80
2015,08,24,10,00,19.80
2015,08,24,10,01,19.80
2015,08,24,10,02,19.70
2015,08,24,10,03,19.70
2015,08,24,10,04,19.70
2015,08,24,10,05,19.70
2015,08,24,10,06,19.70
2015,08,24,10,07,19.70
2015,08,24,10,08,19.80
2015,08,24,10,09,19.80
2015,08,24,10,10,19.90
2015,08,24,10,11,19.90
2015,08,24,10,12,19.90
2015,08,24,10,13,20.00
2015,08,24,10,14,20.00
2015,08,24,10,15,20.00
2015,08,24,10,16,20.00
2015,08,24,10,17,19.90
2015,08,24,10,18,20.00
2015,08,24,10,19,20.10
2015,08,24,10,20,20.10
2015,08,24,10,21,20.00
2015,08,24,10,22,19.90
2015,08,24,10,23,20.00
2015,08,24,10,24,20.00
2015,08,24,10,25,20.10
2015,08,24,10,26,20.20
2015,08,24,10,27,20.30
2015,08,24,10,28,20.40
2015,08,24,10,29,20.40
2015,08,24,10,30,20.50
2015,08,24,10,31,20.60
2015,08,24,10,32,20.70
2015,08,24,10,33,20.80
2015,08,24,10,34,20.80
2015,08,24,10,35,20.60
2015,08,24,10,36,20.30
2015,08,24,10,37,20.20
2015,08,24,10,38,20.10
2015,08,24,10,39,20.10
2015,08,24,10,40,20.10
2015,08,24,10,41,20.00
2015,08,24,10,42,19.90
2015,08,24,10,43,19.90
2015,08,24,10,44,19.90
2015,08,24,10,45,20.00
2015,08,24,10,46,20.10
2015,08,24,10,47,20.10
2015,08,24,10,48,20.10
2015,08,24,10,49,20.00
2015,08,24,10,50,20.00
2015,08,24,10,51,20.10
2015,08,24,10,52,20.00
2015,08,24,10,53,20.20
2015,08,24,10,54,20.30
2015,08,24,10,55,20.40
2015,08,24,10,56,20.30
2015,08,24,10,57,20.20
2015,08,24,10,58,20.10
2015,08,24,10,59,20.00
2015,08,24,11,00,19.90
2015,08,24,11,01,20.00
2015,08,24,11,02,20.10
2015,08,24,11,03,20.20
2015,08,24,11,04,20.20
2015,08,24,11,05,20.20
2015,08,24,11,06,20.20
2015,08,24,11,07,20.20
2015,08,24,11,08,20.30
2015,08,24,11,09,20.30
2015,08,24,11,10,20.30
2015,08,24,11,11,20.20
2015,08,24,11,12,20.20
2015,08,24,11,13,20.00
2015,08,24,11,14,19.90
2015,08,24,11,15,19.80
2015,08,24,11,16,19.90
2015,08,24,11,17,19.90
2015,08,24,11,18,20.00
2015,08,24,11,19,20.00
2015,08,24,11,20,20.00
2015,08,24,11,21,20.00
2015,08,24,11,22,20.00
2015,08,24,11,23,19.90
2015,08,24,11,24,19.70
2015,08,24,11,25,19.60
2015,08,24,11,26,19.60
2015,08,24,11,27,19.50
2015,08,24,11,28,19.50
2015,08,24,11,29,19.60
2015,08,24,11,30,19.70
2015,08,24,11,31,19.70
2015,08,24,11,32,19.60
2015,08,24,11,33,19.50
2015,08,24,11,34,19.40
2015,08,24,11,35,19.50
2015,08,24,11,36,19.50
2015,08,24,11,37,19.50
2015,08,24,11,38,19.50
2015,08,24,11,39,19.60
2015,08,24,11,40,19.50
2015,08,24,11,41,19.40
2015,08,24,11,42,19.30
2015,08,24,11,43,19.30
2015,08,24,11,44,19.30
2015,08,24,11,45,19.30
2015,08,24,11,46,19.30
2015,08,24,11,47,19.20
2015,08,24,11,48,19.20
2015,08,24,11,49,19.20
2015,08,24,11,50,19.30
2015,08,24,11,51,19.50
2015,08,24,11,52,19.60
2015,08,24,11,53,19.60
2015,08,24,11,54,19.60
2015,08,24,11,55,19.50
2015,08,24,11,56,19.50
2015,08,24,11,57,19.60
2015,08,24,11,58,19.60
2015,08,24,11,59,19.60
2015,08,24,12,00,19.70
2015,08,24,12,01,19.70
2015,08,24,12,02,19.80
2015,08,24,12,03,19.90
2015,08,24,12,04,20.00
2015,08,24,12,05,20.10
2015,08,24,12,06,20.30
2015,08,24,12,07,20.40
2015,08,24,12,08,20.40
2015,08,24,12,09,20.30
2015,08,24,12,10,20.30
2015,08,24,12,11,20.30
2015,08,24,12,12,20.40
2015,08,24,12,13,20.40
2015,08,24,12,14,20.40
2015,08,24,12,15,20.40
2015,08,24,12,16,20.50
2015,08,24,12,17,20.60
2015,08,24,12,18,20.60
2015,08,24,12,19,20.70
2015,08,24,12,20,20.80
2015,08,24,12,21,20.80
2015,08,24,12,22,20.80
2015,08,24,12,23,20.80
2015,08,24,12,24,20.80
2015,08,24,12,25,20.70
2015,08,24,12,26,20.60
2015,08,24,12,27,20.60
2015,08,24,12,28,20.60
2015,08,24,12,29,20.60
2015,08,24,12,30,20.60
2015,08,24,12,31,20.60
2015,08,24,12,32,20.60
2015,08,24,12,33,20.60
2015,08,24,12,34,20.30
2015,08,24,12,35,20.10
2015,08,24,12,36,20.10
2015,08,24,12,37,20.10
2015,08,24,12,38,20.10
2015,08,24,12,39,20.10
2015,08,24,12,40,20.10
2015,08,24,12,41,20.10
2015,08,24,12,42,20.10
2015,08,24,12,43,20.10
2015,08,24,12,44,20.00
2015,08,24,12,45,19.90
2015,08,24,12,46,19.80
2015,08,24,12,47,19.70
2015,08,24,12,48,19.60
2015,08,24,12,49,19.50
2015,08,24,12,50,19.50
2015,08,24,12,51,19.60
2015,08,24,12,52,19.70
2015,08,24,12,53,19.80
2015,08,24,12,54,19.80
2015,08,24,12,55,19.80
2015,08,24,12,56,19.70
2015,08,24,12,57,19.70
2015,08,24,12,58,19.80
2015,08,24,12,59,19.80
2015,08,24,13,00,19.80
2015,08,24,13,01,19.80
2015,08,24,13,02,19.90
2015,08,24,13,03,19.90
2015,08,24,13,04,19.80
2015,08,24,13,05,19.80
2015,08,24,13,06,19.90
2015,08,24,13,07,19.80
2015,08,24,13,08,19.70
2015,08,24,13,09,19.80
2015,08,24,13,10,19.80
2015,08,24,13,11,19.90
2015,08,24,13,12,20.00
2015,08,24,13,13,20.10
2015,08,24,13,14,20.20
2015,08,24,13,15,20.20
2015,08,24,13,16,20.30
2015,08,24,13,17,20.40
2015,08,24,13,18,20.40
2015,08,24,13,19,20.40
2015,08,24,13,20,20.40
2015,08,24,13,21,20.30
2015,08,24,13,22,20.40
2015,08,24,13,23,20.30
2015,08,24,13,24,20.20
2015,08,24,13,25,20.10
2015,08,24,13,26,20.00
2015,08,24,13,27,19.90
2015,08,24,13,28,20.00
2015,08,24,13,29,20.10
2015,08,24,13,30,20.20
2015,08,24,13,31,20.30
2015,08,24,13,32,20.30
2015,08,24,13,33,20.30
2015,08,24,13,34,20.40
2015,08,24,13,35,20.50
2015,08,24,13,36,20.50
2015,08,24,13,37,20.50
2015,08,24,13,38,20.60
2015,08,24,13,39,20.70
2015,08,24,13,40,20.80
2015,08,24,13,41,20.90
2015,08,24,13,42,20.90
2015,08,24,13,43,21.00
2015,08,24,13,44,21.10
2015,08,24,13,45,21.10
2015,08,24,13,46,21.10
2015,08,24,13,47,21.00
2015,08,24,13,48,21.00
2015,08,24,13,49,21.00
2015,08,24,13,50,21.00
2015,08,24,13,51,21.00
2015,08,24,13,52,21.10
2015,08,24,13,53,21.30
2015,08,24,13,54,21.40
2015,08,24,13,55,21.30
2015,08,24,13,56,21.10
2015,08,24,13,57,21.00
2015,08,24,13,58,20.90
2015,08,24,13,59,20.90
2015,08,24,14,00,20.90
2015,08,24,14,01,20.80
2015,08,24,14,02,20.80
2015,08,24,14,03,20.80
2015,08,24,14,04,20.80
2015,08,24,14,05,20.70
2015,08,24,14,06,20.60
2015,08,24,14,07,20.60
2015,08,24,14,08,20.70
2015,08,24,14,09,20.80
2015,08,24,14,10,20.80
2015,08,24,14,11,20.80
2015,08,24,14,12,20.80
2015,08,24,14,13,20.80
2015,08,24,14,14,20.80
2015,08,24,14,15,20.70
2015,08,24,14,16,20.70
2015,08,24,14,17,20.70
2015,08,24,14,18,20.60
2015,08,24,14,19,20.50
2015,08,24,14,20,20.50
2015,08,24,14,21,20.50
2015,08,24,14,22,20.50
2015,08,24,14,23,20.60
2015,08,24,14,24,20.70
2015,08,24,14,25,20.80
2015,08,24,14,26,20.80
2015,08,24,14,27,20.70
2015,08,24,14,28,20.70
2015,08,24,14,29,20.70
2015,08,24,14,30,20.70
2015,08,24,14,31,20.70
2015,08,24,14,32,20.70
2015,08,24,14,33,20.70
2015,08,24,14,34,20.80
2015,08,24,14,35,20.80
2015,08,24,14,36,20.80
2015,08,24,14,37,20.90
2015,08,24,14,38,21.00
2015,08,24,14,39,21.10
2015,08,24,14,40,21.10
2015,08,24,14,41,21.00
2015,08,24,14,42,21.00
2015,08,24,14,43,20.90
2015,08,24,14,44,20.90
2015,08,24,14,45,20.90
2015,08,24,14,46,20.80
2015,08,24,14,47,20.80
2015,08,24,14,48,20.60
2015,08,24,14,49,20.50
2015,08,24,14,50,20.50
2015,08,24,14,51,20.60
2015,08,24,14,52,20.70
2015,08,24,14,53,20.70
2015,08,24,14,54,20.70
2015,08,24,14,55,20.70
2015,08,24,14,56,20.90
2015,08,24,14,57,21.00
2015,08,24,14,58,21.20
2015,08,24,14,59,21.40
2015,08,24,15,00,21.50
2015,08,24,15,01,21.60
2015,08,24,15,02,21.60
2015,08,24,15,03,21.60
2015,08,24,15,04,21.50
2015,08,24,15,05,21.50
2015,08,24,15,06,21.60
2015,08,24,15,07,21.80
2015,08,24,15,08,22.00
2015,08,24,15,09,22.20
2015,08,24,15,10,22.20
2015,08,24,15,11,22.00
2015,08,24,15,12,21.90
2015,08,24,15,13,21.90
2015,08,24,15,14,21.80
2015,08,24,15,15,21.80
2015,08,24,15,16,21.90
2015,08,24,15,17,22.00
2015,08,24,15,18,21.90
2015,08,24,15,19,21.90
2015,08,24,15,20,21.90
2015,08,24,15,21,21.90
2015,08,24,15,22,21.90
2015,08,24,15,23,21.90
2015,08,24,15,24,21.90
2015,08,24,15,25,21.80
2015,08,24,15,26,21.70
2015,08,24,15,27,21.70
2015,08,24,15,28,21.70
2015,08,24,15,29,21.70
2015,08,24,15,30,21.60
2015,08,24,15,31,21.70
2015,08,24,15,32,21.70
2015,08,24,15,33,21.70
2015,08,24,15,34,21.70
2015,08,24,15,35,21.60
2015,08,24,15,36,21.60
2015,08,24,15,37,21.60
2015,08,24,15,38,21.70
2015,08,24,15,39,21.80
2015,08,24,15,40,21.90
2015,08,24,15,41,22.00
2015,08,24,15,42,22.10
2015,08,24,15,43,22.20
2015,08,24,15,44,22.20
2015,08,24,15,45,22.20
2015,08,24,15,46,22.20
2015,08,24,15,47,22.10
2015,08,24,15,48,22.00
2015,08,24,15,49,21.90
2015,08,24,15,50,22.00
2015,08,24,15,51,22.10
2015,08,24,15,52,22.10
2015,08,24,15,53,22.10
2015,08,24,15,54,22.20
2015,08,24,15,55,22.20
2015,08,24,15,56,22.20
2015,08,24,15,57,22.10
2015,08,24,15,58,22.10
2015,08,24,15,59,22.10
2015,08,24,16,00,22.10
2015,08,24,16,01,22.20
2015,08,24,16,02,22.30
2015,08,24,16,03,22.30
2015,08,24,16,04,22.20
2015,08,24,16,05,22.10
2015,08,24,16,06,22.00
2015,08,24,16,07,22.00
2015,08,24,16,08,22.00
2015,08,24,16,09,21.90
2015,08,24,16,10,22.00
2015,08,24,16,11,22.00
2015,08,24,16,12,22.10
2015,08,24,16,13,22.20
2015,08,24,16,14,22.20
2015,08,24,16,15,22.20
2015,08,24,16,16,22.10
2015,08,24,16,17,22.10
2015,08,24,16,18,22.00
2015,08,24,16,19,21.80
2015,08,24,16,20,21.70
2015,08,24,16,21,21.70
2015,08,24,16,22,21.70
2015,08,24,16,23,21.70
2015,08,24,16,24,21.60
2015,08,24,16,25,21.60
2015,08,24,16,26,21.60
2015,08,24,16,27,21.50
2015,08,24,16,28,21.60
2015,08,24,16,29,21.60
2015,08,24,16,30,21.60
2015,08,24,16,31,21.70
2015,08,24,16,32,21.70
2015,08,24,16,33,21.70
2015,08,24,16,34,21.80
2015,08,24,16,35,21.90
2015,08,24,16,36,22.00
2015,08,24,16,37,22.10
2015,08,24,16,38,22.10
2015,08,24,16,39,22.20
2015,08,24,16,40,22.30
2015,08,24,16,41,22.40
2015,08,24,16,42,22.50
2015,08,24,16,43,22.60
2015,08,24,16,44,22.60
2015,08,24,16,45,22.60
2015,08,24,16,46,22.50
2015,08,24,16,47,22.50
2015,08,24,16,48,22.50
2015,08,24,16,49,22.50
2015,08,24,16,50,22.40
2015,08,24,16,51,22.30
2015,08,24,16,52,22.30
2015,08,24,16,53,22.20
2015,08,24,16,54,22.30
2015,08,24,16,55,22.30
2015,08,24,16,56,22.30
2015,08,24,16,57,22.30
2015,08,24,16,58,22.30
2015,08,24,16,59,22.20
2015,08,24,17,00,22.20
2015,08,24,17,01,22.20
2015,08,24,17,02,22.20
2015,08,24,17,03,22.20
2015,08,24,17,04,22.20
2015,08,24,17,05,22.20
2015,08,24,17,06,22.20
2015,08,24,17,07,22.20
2015,08,24,17,08,22.30
2015,08,24,17,09,22.30
2015,08,24,17,10,22.30
2015,08,24,17,11,22.30
2015,08,24,17,12,22.20
2015,08,24,17,13,22.20
2015,08,24,17,14,22.20
2015,08,24,17,15,22.20
2015,08,24,17,16,22.10
2015,08,24,17,17,22.10
2015,08,24,17,18,22.10
2015,08,24,17,19,22.10
2015,08,24,17,20,22.20
2015,08,24,17,21,22.20
2015,08,24,17,22,22.30